| time (UTC) | temp F | wind direction | speed MPH | gust MPH | rain 1hr in | rain 24hr in | rain mn in | humidity % | barometer mb |
| 20260906124535 | 82 | 313 | 1.0 | 3.0 | 0.00 | 0.89 | 0.00 | 88 | 1015.7 |
| 20260906123035 | 81 | 0 | 0.0 | 3.0 | 0.00 | 0.89 | 0.00 | 93 | 1015.7 |
| 20260906121532 | 79 | 302 | 1.0 | 4.0 | 0.00 | 0.89 | 0.00 | 96 | 1015.6 |
| 20260906120036 | 78 | 298 | 0.0 | 1.0 | 0.00 | 0.89 | 0.00 | 98 | 1015.5 |
| 20260906114534 | 77 | 0 | 0.0 | 1.0 | 0.00 | 0.91 | 0.00 | 98 | 1015.4 |
| 20260906113042 | 77 | 0 | 0.0 | 0.0 | 0.00 | 0.91 | 0.00 | 98 | 1015.0 |
| 20260906111539 | 76 | 0 | 0.0 | 1.0 | 0.00 | 0.91 | 0.00 | 98 | 1014.7 |
| 20260906110036 | 76 | 327 | 0.0 | 0.0 | 0.00 | 0.91 | 0.00 | 98 | 1014.3 |
| 20260906104533 | 76 | 0 | 0.0 | 1.0 | 0.00 | 0.91 | 0.00 | 98 | 1014.1 |
| 20260906103033 | 76 | 0 | 0.0 | 0.0 | 0.00 | 0.91 | 0.00 | 98 | 1014.0 |
| 20260906101535 | 76 | 0 | 0.0 | 1.0 | 0.00 | 0.91 | 0.00 | 98 | 1013.5 |
| 20260906100030 | 76 | 0 | 0.0 | 1.0 | 0.00 | 0.91 | 0.00 | 98 | 1013.5 |
| 20260906094535 | 76 | 0 | 0.0 | 0.0 | 0.00 | 0.91 | 0.00 | 98 | 1013.6 |
| 20260906093032 | 76 | 0 | 0.0 | 0.0 | 0.00 | 0.91 | 0.00 | 98 | 1013.6 |
| 20260906091534 | 76 | 0 | 0.0 | 1.0 | 0.00 | 0.91 | 0.00 | 98 | 1013.3 |
| 20260906090033 | 76 | 0 | 0.0 | 1.0 | 0.00 | 0.91 | 0.00 | 98 | 1013.3 |
| 20260906084534 | 76 | 0 | 0.0 | 1.0 | 0.00 | 0.91 | 0.00 | 98 | 1013.1 |
| 20260906083039 | 76 | 0 | 0.0 | 1.0 | 0.00 | 0.91 | 0.00 | 98 | 1013.2 |
| 20260906081537 | 76 | 0 | 0.0 | 1.0 | 0.00 | 0.91 | 0.00 | 98 | 1013.1 |
| 20260906080035 | 76 | 0 | 0.0 | 1.0 | 0.00 | 0.91 | 0.00 | 98 | 1013.2 |
| 20260906074536 | 76 | 0 | 0.0 | 1.0 | 0.00 | 0.91 | 0.00 | 98 | 1013.3 |
| 20260906073034 | 76 | 0 | 0.0 | 0.0 | 0.00 | 0.91 | 0.00 | 97 | 1013.4 |
| 20260906071538 | 76 | 0 | 0.0 | 1.0 | 0.00 | 0.91 | 0.00 | 97 | 1013.6 |
| 20260906070033 | 76 | 0 | 0.0 | 1.0 | 0.00 | 0.91 | 0.00 | 97 | 1013.8 |
| 20260906064536 | 76 | 0 | 0.0 | 1.0 | 0.00 | 0.91 | 0.00 | 97 | 1014.2 |
| 20260906063031 | 76 | 0 | 0.0 | 0.0 | 0.00 | 0.91 | 0.00 | 97 | 1014.4 |
| 20260906061535 | 76 | 0 | 0.0 | 1.0 | 0.00 | 0.91 | 0.00 | 97 | 1014.5 |
| 20260906060034 | 76 | 309 | 0.0 | 2.0 | 0.00 | 0.91 | 0.00 | 97 | 1014.9 |
| 20260906054534 | 76 | 296 | 0.0 | 2.0 | 0.00 | 0.91 | 0.00 | 97 | 1015.0 |
| 20260906053036 | 76 | 0 | 1.0 | 4.0 | 0.00 | 0.91 | 0.00 | 97 | 1014.8 |
| 20260906051534 | 76 | 132 | 0.0 | 1.0 | 0.00 | 0.91 | 0.00 | 98 | 1014.5 |
| 20260906050054 | 76 | 0 | 0.0 | 1.0 | 0.00 | 0.91 | 0.00 | 98 | 1014.2 |
| 20260906044533 | 76 | 0 | 0.0 | 1.0 | 0.00 | 0.91 | 0.00 | 97 | 1014.4 |
| 20260906043032 | 76 | 0 | 0.0 | 1.0 | 0.00 | 0.91 | 0.00 | 97 | 1014.8 |
| 20260906041532 | 76 | 0 | 0.0 | 1.0 | 0.01 | 0.91 | 0.00 | 97 | 1015.2 |
| 20260906040036 | 76 | 0 | 0.0 | 1.0 | 0.01 | 0.91 | 0.00 | 97 | 1015.2 |
| 20260906034540 | 75 | 0 | 0.0 | 1.0 | 0.01 | 0.91 | 0.91 | 97 | 1015.5 |
| 20260906033034 | 75 | 131 | 0.0 | 3.0 | 0.01 | 0.91 | 0.91 | 96 | 1015.6 |
| 20260906031540 | 75 | 229 | 2.0 | 6.0 | 0.01 | 0.90 | 0.90 | 96 | 1016.3 |
| 20260906030033 | 76 | 239 | 2.0 | 10.0 | 0.01 | 0.90 | 0.90 | 96 | 1016.7 |
| 20260906024537 | 76 | 217 | 0.0 | 10.0 | 0.01 | 0.90 | 0.90 | 96 | 1017.0 |
| 20260906023038 | 76 | 238 | 2.0 | 8.0 | 0.01 | 0.90 | 0.90 | 97 | 1017.7 |
| 20260906021534 | 76 | 0 | 0.0 | 3.0 | 0.00 | 0.89 | 0.89 | 97 | 1017.3 |
| 20260906020034 | 76 | 0 | 0.0 | 2.0 | 0.01 | 0.89 | 0.89 | 97 | 1017.6 |
| 20260906014535 | 76 | 0 | 0.0 | 3.0 | 0.01 | 0.89 | 0.89 | 97 | 1017.3 |
| 20260906013037 | 76 | 321 | 0.0 | 0.0 | 0.02 | 0.89 | 0.89 | 97 | 1016.8 |
| 20260906011536 | 75 | 0 | 0.0 | 4.0 | 0.03 | 0.89 | 0.89 | 96 | 1016.5 |
| 20260906010035 | 75 | 0 | 0.0 | 1.0 | 0.05 | 0.88 | 0.88 | 96 | 1016.1 |
| 20260906004537 | 75 | 0 | 0.0 | 1.0 | 0.17 | 0.88 | 0.88 | 96 | 1015.9 |
| 20260906003033 | 76 | 257 | 1.0 | 3.0 | 0.36 | 0.87 | 0.87 | 96 | 1015.7 |
| 20260906001532 | 75 | 0 | 0.0 | 1.0 | 0.40 | 0.86 | 0.86 | 96 | 1015.6 |
| 20260906000033 | 75 | 145 | 0.0 | 3.0 | 0.69 | 0.82 | 0.82 | 95 | 1016.2 |
| 20260905234534 | 75 | 51 | 1.0 | 13.0 | 0.58 | 0.71 | 0.71 | 94 | 1016.3 |
| 20260905233035 | 77 | 41 | 1.0 | 10.0 | 0.38 | 0.51 | 0.51 | 93 | 1016.2 |
| 20260905231533 | 80 | 60 | 2.0 | 10.0 | 0.32 | 0.45 | 0.45 | 91 | 1015.7 |
| 20260905230034 | 83 | 317 | 6.0 | 16.0 | 0.00 | 0.13 | 0.13 | 82 | 1015.7 |
| 20260905224541 | 85 | 49 | 2.0 | 10.0 | 0.00 | 0.13 | 0.13 | 79 | 1015.8 |
| 20260905223039 | 86 | 295 | 1.0 | 4.0 | 0.00 | 0.13 | 0.13 | 78 | 1015.9 |
| 20260905221534 | 86 | 0 | 0.0 | 0.0 | 0.00 | 0.13 | 0.13 | 78 | 1014.9 |
| 20260905220035 | 87 | 215 | 0.0 | 3.0 | 0.00 | 0.13 | 0.13 | 76 | 1014.7 |
| 20260905214535 | 88 | 229 | 0.0 | 3.0 | 0.00 | 0.13 | 0.13 | 77 | 1014.8 |
| 20260905213038 | 88 | 268 | 1.0 | 5.0 | 0.00 | 0.13 | 0.13 | 78 | 1014.6 |
| 20260905211535 | 89 | 161 | 3.0 | 6.0 | 0.00 | 0.13 | 0.13 | 77 | 1014.3 |
| 20260905210042 | 89 | 136 | 1.0 | 6.0 | 0.00 | 0.13 | 0.13 | 78 | 1014.6 |
| 20260905204535 | 88 | 0 | 0.0 | 3.0 | 0.00 | 0.13 | 0.13 | 80 | 1014.5 |
| 20260905203034 | 88 | 119 | 0.0 | 3.0 | 0.00 | 0.13 | 0.13 | 81 | 1014.4 |
| 20260905201539 | 87 | 139 | 0.0 | 3.0 | 0.00 | 0.13 | 0.13 | 80 | 1014.6 |
| 20260905200042 | 87 | 0 | 0.0 | 5.0 | 0.00 | 0.13 | 0.13 | 80 | 1014.9 |
| 20260905194532 | 87 | 150 | 1.0 | 4.0 | 0.00 | 0.13 | 0.13 | 80 | 1014.9 |
| 20260905193033 | 87 | 0 | 0.0 | 4.0 | 0.00 | 0.13 | 0.13 | 80 | 1014.7 |
| 20260905191536 | 87 | 220 | 1.0 | 3.0 | 0.00 | 0.13 | 0.13 | 79 | 1015.3 |
| 20260905190035 | 87 | 224 | 1.0 | 4.0 | 0.00 | 0.13 | 0.13 | 78 | 1015.4 |
| 20260905184537 | 88 | 0 | 1.0 | 5.0 | 0.00 | 0.13 | 0.13 | 79 | 1015.2 |
| 20260905183032 | 87 | 116 | 1.0 | 5.0 | 0.00 | 0.13 | 0.13 | 80 | 1015.5 |
| 20260905181534 | 88 | 120 | 1.0 | 4.0 | 0.00 | 0.13 | 0.13 | 79 | 1015.6 |
| 20260905180033 | 88 | 121 | 2.0 | 5.0 | 0.00 | 0.13 | 0.13 | 78 | 1015.9 |
| 20260905174541 | 88 | 0 | 2.0 | 7.0 | 0.00 | 0.13 | 0.13 | 80 | 1016.0 |
| 20260905173031 | 88 | 0 | 2.0 | 7.0 | 0.00 | 0.13 | 0.13 | 79 | 1015.8 |
| 20260905171535 | 90 | 140 | 3.0 | 9.0 | 0.00 | 0.13 | 0.13 | 76 | 1016.2 |
| 20260905170036 | 90 | 143 | 4.0 | 9.0 | 0.00 | 0.13 | 0.13 | 75 | 1016.3 |
| 20260905164533 | 91 | 134 | 3.0 | 6.0 | 0.00 | 0.13 | 0.13 | 75 | 1016.6 |
| 20260905163035 | 90 | 202 | 4.0 | 9.0 | 0.00 | 0.13 | 0.13 | 76 | 1016.8 |
| 20260905161534 | 89 | 98 | 3.0 | 7.0 | 0.00 | 0.13 | 0.13 | 77 | 1017.1 |
| 20260905160046 | 90 | 117 | 3.0 | 7.0 | 0.00 | 0.13 | 0.13 | 77 | 1017.1 |
| 20260905154531 | 90 | 236 | 2.0 | 7.0 | 0.00 | 0.13 | 0.13 | 78 | 1017.1 |
| 20260905153033 | 90 | 202 | 3.0 | 6.0 | 0.00 | 0.13 | 0.13 | 77 | 1017.1 |
| 20260905151535 | 88 | 118 | 2.0 | 6.0 | 0.00 | 0.13 | 0.13 | 79 | 1017.1 |
| 20260905150034 | 88 | 0 | 0.0 | 5.0 | 0.00 | 0.13 | 0.13 | 81 | 1016.9 |
| 20260905144544 | 87 | 207 | 2.0 | 5.0 | 0.00 | 0.23 | 0.13 | 81 | 1016.8 |
| 20260905143037 | 86 | 195 | 1.0 | 3.0 | 0.00 | 0.23 | 0.13 | 81 | 1016.9 |
| 20260905141600 | 86 | 250 | 0.0 | 1.0 | 0.00 | 0.23 | 0.13 | 84 | 1016.9 |
| 20260905140039 | 84 | 251 | 0.0 | 1.0 | 0.05 | 0.23 | 0.13 | 86 | 1016.9 |
| 20260905134534 | 81 | 0 | 0.0 | 0.0 | 0.06 | 0.24 | 0.13 | 95 | 1016.8 |
| 20260905133049 | 79 | 0 | 0.0 | 0.0 | 0.07 | 0.24 | 0.13 | 96 | 1017.0 |
| 20260905131549 | 79 | 0 | 0.0 | 2.0 | 0.10 | 0.24 | 0.13 | 96 | 1017.1 |
| 20260905130035 | 79 | 0 | 0.0 | 4.0 | 0.05 | 0.18 | 0.07 | 96 | 1016.9 |